[[{"header":{"parameterUnit":"m.s-1","parameterCategory":2,"la1":30.2992,"la2":30.254,"lo1":-89.0895,"lo2":-89.0443,"dy":0.0025,"dx":0.0025,"nx":19,"ny":19,"refTime":"2026-03-25T09:00:00:Z","depth":"0","parameterNumber":2,"parameterNumberName":"U-component_of_CURRENTS"},"data":[0,0,0,0.3564,0.3565,0.3626,0.3626,0.375,0.3751,0,0,0,0,0,0,0,0,0,0,0,0.3533,0.3533,0.3564,0.3565,0.3626,0.3626,0.375,0.3751,0,0,0,0,0,0,0,0,0,0,0,0.3533,0.3533,0.3534,0.3566,0.3626,0.3626,0.3749,0.3691,0,0,0,0,0,0,0,0,0,0,0.3625,0.3589,0.3533,0.3534,0.3566,0.3626,0.3626,0.3687,0.3695,0.3737,0,0.3743,0,0.3758,0.3761,0.3761,0,0,0,0.3561,0.3583,0.3606,0.3534,0.3567,0.3626,0.3597,0.3691,0.3699,0.3746,0.3744,0.3749,0.376,0.3762,0.3762,0.4035,0.4037,0,0,0.3557,0.3542,0.36,0.3611,0.358,0.3595,0.3599,0.3695,0.3701,0.3745,0.3752,0.3762,0.3763,0.3764,0.4033,0.4036,0,0,0,0.3551,0.3539,0.3559,0.3606,0.3618,0.3597,0.3602,0.3696,0.3704,0.3753,0.3764,0.3764,0.3765,0.4031,0.4034,0.4326,0,0,0,0.3548,0.3537,0.3557,0.3548,0.3616,0.3652,0.36,0.3696,0.3708,0.3763,0.3764,0.3767,0.4029,0.4033,0.4314,0.4322,0,0,0,0.3531,0.3535,0.3542,0.3547,0.3578,0.365,0.3663,0.3699,0.3716,0.3761,0.3767,0.4028,0.4032,0.4303,0.4306,0.4452,0,0,0,0.3513,0.3569,0.3541,0.3631,0.3577,0.3733,0.3662,0.3736,0.3781,0.3764,0.4029,0.4034,0.4299,0.4297,0.4442,0.4438,0.4484,0,0,0.3586,0.3576,0.3641,0.362,0.3827,0.3724,0.3979,0.3964,0.3871,0.3995,0.4001,0.4318,0.4305,0.445,0.4699,0.4737,0,0,0,0.367,0.373,0.3786,0.3891,0.3964,0.4095,0.4106,0.4129,0.4214,0.392,0.4328,0.4307,0.4391,0.4369,0.4401,0.4065,0.4055,0.4054,0.4054,0.3769,0.3852,0.4013,0.4152,0.4248,0.4373,0.4472,0.4503,0.4439,0.4513,0.4561,0.4867,0.4853,0.4874,0.4532,0.4636,0.4637,0.4638,0.4639,0.396,0.4074,0.4188,0.4367,0.4508,0.468,0.4844,0.4841,0.5009,0.4855,0.4928,0.4691,0.4926,0.4547,0.4658,0.4655,0.4652,0.465,0.4649,0.4053,0.4121,0.4224,0.446,0.4652,0.4807,0.4993,0.5091,0.5159,0.5265,0.5186,0.5179,0.4825,0.532,0.5321,0.5321,0.5322,0.5323,0.5323,0.409,0.4209,0.4346,0.4544,0.4652,0.4814,0.5049,0.5194,0.5376,0.5411,0.5412,0.4886,0.5071,0.502,0.5335,0.5333,0.5332,0.5331,0.533,0.4251,0.4237,0.4432,0.4544,0.4753,0.4814,0.5055,0.5326,0.5529,0.5619,0.5194,0.5513,0.5386,0.5357,0.531,0.5682,0.5682,0.5682,0.5682,0.4303,0.4328,0.4525,0.465,0.4783,0.4831,0.4912,0.508,0.5206,0.5144,0.5152,0.4981,0.4981,0.4815,0.4799,0.4733,0.495,0.4948,0.4947,0.4421,0.4455,0.4574,0.4655,0.4779,0.4788,0.4646,0.4526,0.4745,0.4878,0.4694,0.4726,0.4429,0.4456,0.4148,0.4151,0.4025,0,0]},{"header":{"parameterUnit":"m.s-1","parameterCategory":2,"la1":30.2992,"la2":30.254,"lo1":-89.0895,"lo2":-89.0443,"dy":0.0025,"dx":0.0025,"nx":19,"ny":19,"refTime":"2026-03-25T09:00:00:Z","depth":"0","parameterNumber":3,"parameterNumberName":"V-component_of_CURRENTS"},"data":[0,0,0,0.0155,0.0155,0.012,0.012,0.0051,0.0051,0,0,0,0,0,0,0,0,0,0,0,0.0169,0.017,0.0155,0.0155,0.012,0.012,0.0051,0.0051,0,0,0,0,0,0,0,0,0,0,0,0.0169,0.0169,0.017,0.0155,0.012,0.012,0.0052,0.008,0,0,0,0,0,0,0,0,0,0,0.0116,0.0136,0.0169,0.017,0.0155,0.012,0.012,0.0082,0.0079,0.0064,0,0.0071,0,0.0064,0.0047,0.0047,0,0,0,0.0141,0.0139,0.0133,0.017,0.0154,0.012,0.0132,0.008,0.0076,0.006,0.007,0.0068,0.0063,0.0047,0.0046,0.0077,0.0078,0,0,0.0143,0.0154,0.0136,0.0131,0.0161,0.0133,0.0131,0.0078,0.0078,0.007,0.0066,0.0062,0.0046,0.0046,0.0076,0.0077,0,0,0,0.0158,0.0156,0.0152,0.0134,0.0132,0.0132,0.013,0.008,0.008,0.0065,0.0061,0.0046,0.0045,0.0075,0.0077,0.0172,0,0,0,0.0158,0.0165,0.0153,0.0158,0.0134,0.0109,0.0133,0.0084,0.0078,0.0061,0.0046,0.0045,0.0075,0.0076,0.0168,0.0234,0,0,0,0.0168,0.0166,0.0168,0.0159,0.015,0.011,0.0106,0.0082,0.0075,0.0047,0.0044,0.0074,0.0076,0.0164,0.0226,0.0371,0,0,0,0.0172,0.0213,0.0168,0.0212,0.0151,0.0174,0.0106,0.0114,0.01,0.0046,0.0075,0.0076,0.0162,0.0222,0.0364,0.0554,0.0598,0,0,0.0233,0.022,0.0249,0.0209,0.0245,0.0176,0.0209,0.016,0.012,0.0085,0.0086,0.0169,0.0226,0.0369,0.0659,0.0701,0,0,0,0.0275,0.0283,0.0293,0.0294,0.0293,0.028,0.0225,0.0214,0.0201,0.0121,0.018,0.0213,0.0301,0.0402,0.0434,0.0313,0.0085,0.0085,0.0085,0.0345,0.0339,0.0371,0.0356,0.0368,0.0347,0.0362,0.0331,0.0266,0.029,0.0298,0.0482,0.0589,0.0616,0.0486,0.0292,0.0292,0.0293,0.0293,0.04,0.0407,0.0399,0.0423,0.0418,0.0431,0.0452,0.0437,0.0512,0.0404,0.0485,0.0505,0.0658,0.0507,0.0299,0.0298,0.0297,0.0297,0.0296,0.0411,0.0416,0.042,0.0445,0.0479,0.0486,0.0606,0.0601,0.0619,0.0695,0.0841,0.084,0.0707,0.0746,0.0747,0.0748,0.0749,0.075,0.075,0.0416,0.0423,0.0454,0.0477,0.0519,0.0598,0.071,0.0825,0.098,0.0996,0.0998,0.0776,0.0622,0.0604,0.0765,0.0762,0.076,0.0759,0.0758,0.0431,0.044,0.0492,0.0536,0.0656,0.0846,0.0932,0.1254,0.136,0.1497,0.1214,0.1173,0.118,0.1154,0.1149,0.1442,0.1442,0.1442,0.1442,0.0451,0.0454,0.0548,0.0645,0.0796,0.0965,0.1409,0.1677,0.1672,0.1613,0.142,0.1307,0.1285,0.1286,0.1256,0.1248,0.1559,0.1559,0.1558,0.0473,0.05,0.0582,0.0678,0.0858,0.1162,0.1647,0.2106,0.1951,0.1537,0.1214,0.1209,0.1002,0.0977,0.0935,0.0904,0.0874,0,0]}],[{"header":{"parameterUnit":"m.s-1","parameterCategory":2,"la1":30.2992,"la2":30.254,"lo1":-89.0895,"lo2":-89.0443,"dy":0.0025,"dx":0.0025,"nx":19,"ny":19,"refTime":"2026-03-25T09:00:00:Z","depth":"2","parameterNumber":2,"parameterNumberName":"U-component_of_CURRENTS"},"data":[0,0,0,0.2514,0.2516,0.2582,0.2582,0.2651,0.2651,0,0,0,0,0,0,0,0,0,0,0,0.249,0.2491,0.2514,0.2516,0.2582,0.2582,0.265,0.2651,0,0,0,0,0,0,0,0,0,0,0,0.2489,0.249,0.2491,0.2517,0.2582,0.2582,0.265,0.2601,0,0,0,0,0,0,0,0,0,0,0.2537,0.2511,0.249,0.2492,0.2517,0.2582,0.2582,0.2598,0.2604,0.2622,0,0.2646,0,0.266,0.2657,0.2657,0,0,0,0.25,0.2507,0.254,0.2492,0.2518,0.2582,0.2547,0.2601,0.2607,0.2629,0.2647,0.265,0.2661,0.2658,0.2658,0.2775,0.2776,0,0,0.2496,0.2483,0.2536,0.2545,0.2554,0.2545,0.255,0.2605,0.261,0.2647,0.2652,0.2662,0.2658,0.2659,0.2774,0.2775,0,0,0,0.2497,0.2481,0.2512,0.2542,0.256,0.2548,0.2553,0.2607,0.2623,0.2652,0.2663,0.2659,0.266,0.2774,0.2775,0.2868,0,0,0,0.2494,0.2483,0.2511,0.2501,0.256,0.2584,0.2553,0.2619,0.2626,0.2662,0.2659,0.2661,0.2773,0.2774,0.2864,0.2933,0,0,0,0.2483,0.2481,0.2498,0.2501,0.2539,0.2584,0.2601,0.262,0.2633,0.2658,0.2661,0.2772,0.2774,0.286,0.2926,0.3008,0,0,0,0.2454,0.2477,0.2498,0.2524,0.2539,0.26,0.2601,0.2651,0.2677,0.2659,0.2773,0.2775,0.2859,0.2921,0.3003,0.2932,0.295,0,0,0.2462,0.2477,0.2492,0.2513,0.2537,0.2589,0.2656,0.2696,0.2704,0.2749,0.2752,0.2865,0.2925,0.3007,0.3019,0.3033,0,0,0,0.2481,0.2487,0.2502,0.2521,0.2574,0.2665,0.2699,0.2754,0.2831,0.273,0.287,0.2905,0.2953,0.29,0.2912,0.2782,0.2781,0.2781,0.2781,0.2471,0.2482,0.2499,0.2535,0.2595,0.2714,0.2807,0.2889,0.2875,0.2942,0.2983,0.3115,0.3058,0.3067,0.2969,0.297,0.297,0.2971,0.2971,0.244,0.2448,0.2494,0.2521,0.2641,0.2735,0.2928,0.2983,0.3138,0.3093,0.3134,0.3003,0.3085,0.2978,0.2977,0.2976,0.2975,0.2974,0.2974,0.239,0.2405,0.2424,0.2485,0.2643,0.2807,0.2999,0.3147,0.323,0.3306,0.3249,0.3246,0.319,0.3332,0.3332,0.3333,0.3334,0.3334,0.3335,0.2342,0.2358,0.2397,0.2482,0.2589,0.2779,0.3095,0.3229,0.3376,0.3374,0.3372,0.3238,0.3226,0.3212,0.3345,0.3343,0.3342,0.3341,0.334,0.2336,0.2372,0.237,0.2442,0.2661,0.2713,0.3011,0.3269,0.3445,0.348,0.3399,0.3394,0.3365,0.3352,0.3341,0.35,0.35,0.35,0.35,0.2431,0.2398,0.2456,0.2518,0.2632,0.2731,0.2793,0.2923,0.3163,0.3175,0.3187,0.3045,0.3048,0.2992,0.2987,0.2964,0.3026,0.3025,0.3023,0.2559,0.2481,0.2549,0.2525,0.2638,0.2664,0.2563,0.2452,0.266,0.2994,0.2997,0.3489,0.3311,0.3303,0.3237,0.3222,0.3192,0,0]},{"header":{"parameterUnit":"m.s-1","parameterCategory":2,"la1":30.2992,"la2":30.254,"lo1":-89.0895,"lo2":-89.0443,"dy":0.0025,"dx":0.0025,"nx":19,"ny":19,"refTime":"2026-03-25T09:00:00:Z","depth":"2","parameterNumber":3,"parameterNumberName":"V-component_of_CURRENTS"},"data":[0,0,0,0.0233,0.0232,0.0181,0.018,0.0066,0.0065,0,0,0,0,0,0,0,0,0,0,0,0.0247,0.0247,0.0233,0.0232,0.0181,0.018,0.0066,0.0065,0,0,0,0,0,0,0,0,0,0,0,0.0247,0.0247,0.0247,0.0232,0.0181,0.018,0.0066,0.0113,0,0,0,0,0,0,0,0,0,0,0.0167,0.0192,0.0247,0.0247,0.0232,0.0181,0.018,0.0115,0.011,0.0081,0,0.0083,0,0.0079,0.0058,0.0057,0,0,0,0.0214,0.0197,0.0189,0.0247,0.0232,0.0181,0.0199,0.0113,0.0106,0.0073,0.0082,0.0078,0.0077,0.0057,0.0057,0.0029,0.0029,0,0,0.0217,0.0227,0.0193,0.0185,0.0231,0.0201,0.0198,0.0109,0.0104,0.0081,0.0075,0.0076,0.0056,0.0056,0.0029,0.0029,0,0,0,0.0237,0.0229,0.0223,0.019,0.0189,0.02,0.0196,0.0107,0.0107,0.0074,0.0074,0.0056,0.0054,0.0028,0.0029,0.0155,0,0,0,0.0238,0.0242,0.0225,0.0229,0.0191,0.0154,0.0196,0.0113,0.0104,0.0075,0.0056,0.0053,0.0027,0.0028,0.015,0.0273,0,0,0,0.0247,0.0243,0.0243,0.023,0.0217,0.0156,0.015,0.0111,0.0104,0.0057,0.0053,0.0027,0.0028,0.0146,0.0264,0.038,0,0,0,0.0251,0.0268,0.0243,0.0264,0.0218,0.0219,0.015,0.0131,0.01,0.0055,0.0027,0.0029,0.0145,0.0258,0.0374,0.0418,0.0453,0,0,0.0279,0.0272,0.0287,0.0264,0.0294,0.0224,0.0255,0.018,0.0106,0.0048,0.0048,0.0152,0.0263,0.0379,0.0486,0.0519,0,0,0,0.0301,0.0317,0.032,0.033,0.0314,0.0345,0.0254,0.0223,0.0178,0.0096,0.014,0.0208,0.0277,0.0288,0.0314,0.0034,0.0034,0.0034,0.0034,0.0354,0.0358,0.0405,0.0417,0.0427,0.0409,0.0427,0.0371,0.0247,0.025,0.0299,0.0468,0.0477,0.0498,0.0249,0.0249,0.025,0.025,0.025,0.0437,0.048,0.0501,0.0554,0.0581,0.0614,0.0608,0.0551,0.0552,0.0412,0.047,0.0406,0.0535,0.026,0.0258,0.0257,0.0256,0.0255,0.0255,0.0493,0.052,0.0552,0.0654,0.0767,0.0796,0.0957,0.0879,0.0739,0.0774,0.0763,0.0761,0.0595,0.0779,0.078,0.0781,0.0782,0.0782,0.0783,0.054,0.0575,0.0695,0.0793,0.0909,0.1073,0.1168,0.1199,0.1118,0.0965,0.0963,0.0647,0.063,0.0626,0.0799,0.0796,0.0794,0.0793,0.0792,0.0634,0.0657,0.0832,0.0958,0.1215,0.1429,0.1503,0.1556,0.1519,0.1476,0.1066,0.1054,0.1038,0.1013,0.1018,0.1284,0.1284,0.1284,0.1284,0.0708,0.0732,0.0994,0.1224,0.1459,0.1616,0.1821,0.1743,0.1538,0.1339,0.1336,0.1186,0.1166,0.1145,0.1118,0.1119,0.1412,0.1412,0.1412,0.0813,0.088,0.1093,0.13,0.1583,0.1791,0.1935,0.1796,0.1456,0.1412,0.1305,0.1303,0.1065,0.104,0.0984,0.095,0.0943,0,0]}],[{"header":{"parameterUnit":"m.s-1","parameterCategory":2,"la1":30.2992,"la2":30.254,"lo1":-89.0895,"lo2":-89.0443,"dy":0.0025,"dx":0.0025,"nx":19,"ny":19,"refTime":"2026-03-25T09:00:00:Z","depth":"4","parameterNumber":2,"parameterNumberName":"U-component_of_CURRENTS"},"data":[0,0,0,0.1518,0.1521,0.1661,0.1661,0.177,0.1771,0,0,0,0,0,0,0,0,0,0,0,0.1471,0.1472,0.1518,0.1522,0.1661,0.1661,0.177,0.1771,0,0,0,0,0,0,0,0,0,0,0,0.147,0.1472,0.1473,0.1522,0.1661,0.1661,0.177,0.1681,0,0,0,0,0,0,0,0,0,0,0.1553,0.1539,0.1471,0.1473,0.1523,0.1661,0.1661,0.1677,0.1686,0.1689,0,0.1721,0,0.175,0.1777,0.1777,0,0,0,0.1516,0.1531,0.1553,0.1473,0.1524,0.166,0.1597,0.1683,0.1693,0.17,0.1723,0.1728,0.1752,0.1778,0.1778,0.1884,0.1885,0,0,0.1509,0.1509,0.1546,0.156,0.1574,0.1592,0.1601,0.1689,0.1713,0.1724,0.1731,0.1754,0.1778,0.1779,0.1884,0.1884,0,0,0,0.149,0.1503,0.1525,0.1555,0.1587,0.1596,0.1606,0.171,0.1713,0.1732,0.1755,0.1779,0.178,0.1883,0.1884,0.1902,0,0,0,0.1485,0.1493,0.1521,0.1524,0.1586,0.1665,0.1625,0.1707,0.1718,0.1754,0.1779,0.1781,0.1883,0.1884,0.19,0.1905,0,0,0,0.1462,0.1491,0.1507,0.1524,0.1585,0.1664,0.1674,0.171,0.1732,0.1777,0.1781,0.1882,0.1883,0.1899,0.1903,0.2014,0,0,0,0.1454,0.1476,0.1508,0.1536,0.1584,0.1634,0.1674,0.1744,0.1786,0.1779,0.1883,0.1884,0.1898,0.1902,0.2011,0.1761,0,0,0,0.1463,0.1478,0.1486,0.1517,0.1542,0.1614,0.1661,0.1748,0.1801,0.1846,0.185,0.1901,0.1903,0.2013,0.1829,0,0,0,0,0.1474,0.1469,0.1485,0.1515,0.1569,0.1632,0.1711,0.1768,0.1872,0.1833,0.1919,0.192,0.199,0.1835,0.1889,0.1889,0.1889,0.1889,0.1889,0.1442,0.1455,0.1459,0.1483,0.1537,0.1653,0.1727,0.1822,0.1861,0.1931,0.1948,0.2059,0.1893,0.1964,0.1965,0.1965,0.1965,0.1965,0.1965,0.1376,0.1344,0.1412,0.1424,0.1517,0.1589,0.1743,0.1825,0.1992,0.1982,0.205,0.1877,0.1967,0.1967,0.1966,0.1966,0.1966,0.1966,0.1966,0.1281,0.1268,0.1311,0.1363,0.1463,0.1587,0.1723,0.1869,0.2013,0.2091,0.2009,0.2105,0.2093,0.2169,0.2169,0.217,0.217,0.2171,0.2171,0.1156,0.1192,0.1211,0.1301,0.1376,0.1524,0.1753,0.1859,0.2027,0.2015,0.2139,0.2129,0.2122,0.2108,0.2179,0.2178,0.2177,0.2176,0.2175,0.0987,0.1046,0.1069,0.1134,0.13,0.1408,0.1644,0.1809,0.1944,0.1991,0.1993,0.2,0.1989,0.1987,0.1966,0.1999,0.1996,0.1993,0,0.0874,0.09,0.0934,0.1009,0.1125,0.1311,0.1431,0.16,0.1775,0.1727,0.1945,0.1941,0.1946,0.1923,0.1917,0.1885,0,0,0,0.0764,0.0801,0.0796,0.0898,0.102,0.1231,0.1457,0.1474,0.176,0.1777,0.1921,0.194,0.2011,0.2202,0.2204,0.2196,0.2174,0,0]},{"header":{"parameterUnit":"m.s-1","parameterCategory":2,"la1":30.2992,"la2":30.254,"lo1":-89.0895,"lo2":-89.0443,"dy":0.0025,"dx":0.0025,"nx":19,"ny":19,"refTime":"2026-03-25T09:00:00:Z","depth":"4","parameterNumber":3,"parameterNumberName":"V-component_of_CURRENTS"},"data":[0,0,0,0.0185,0.0184,0.0149,0.0148,0.006,0.0059,0,0,0,0,0,0,0,0,0,0,0,0.0196,0.0197,0.0185,0.0184,0.0149,0.0148,0.006,0.0059,0,0,0,0,0,0,0,0,0,0,0,0.0196,0.0197,0.0197,0.0184,0.0149,0.0148,0.006,0.0095,0,0,0,0,0,0,0,0,0,0,0.0133,0.0155,0.0197,0.0197,0.0184,0.0149,0.0148,0.0096,0.0092,0.0068,0,0.0072,0,0.0069,0.0053,0.0053,0,0,0,0.0171,0.0159,0.0152,0.0197,0.0184,0.0149,0.0161,0.0094,0.009,0.0062,0.0071,0.0068,0.0067,0.0053,0.0052,0.0036,0.0037,0,0,0.0173,0.0183,0.0155,0.0149,0.0186,0.0162,0.016,0.0092,0.0089,0.0071,0.0066,0.0066,0.0052,0.0052,0.0036,0.0036,0,0,0,0.0188,0.0184,0.0179,0.0152,0.0152,0.0162,0.0159,0.0092,0.0092,0.0065,0.0065,0.0052,0.0051,0.0035,0.0036,0.0151,0,0,0,0.0188,0.0194,0.0181,0.0185,0.0154,0.0128,0.0161,0.0096,0.0089,0.0065,0.0052,0.005,0.0035,0.0036,0.0146,0.0211,0,0,0,0.0196,0.0194,0.0195,0.0185,0.0176,0.0129,0.0124,0.0095,0.0089,0.0053,0.005,0.0034,0.0035,0.0143,0.0204,0.0229,0,0,0,0.02,0.021,0.0195,0.0211,0.0177,0.0184,0.0125,0.0108,0.0083,0.0051,0.0035,0.0036,0.0142,0.0199,0.0225,0.0235,0,0,0,0.0217,0.0213,0.0225,0.0211,0.0246,0.0187,0.0219,0.0153,0.0091,0.005,0.005,0.0148,0.0203,0.0228,0.0298,0,0,0,0,0.0233,0.0253,0.0257,0.0276,0.0265,0.0286,0.0222,0.0193,0.0158,0.0084,0.0138,0.0169,0.0181,0.0174,0.0041,0.0041,0.0041,0.0041,0.0041,0.0275,0.0287,0.0335,0.0359,0.0364,0.0345,0.0344,0.0295,0.0221,0.0224,0.0255,0.0344,0.0342,0.0236,0.0236,0.0237,0.0237,0.0238,0.0238,0.035,0.0392,0.042,0.0475,0.0492,0.0518,0.0479,0.0435,0.0417,0.0347,0.0352,0.0287,0.0249,0.0247,0.0245,0.0244,0.0243,0.0242,0.0242,0.0398,0.0425,0.0468,0.0565,0.064,0.0644,0.0695,0.0634,0.0534,0.0547,0.0496,0.0414,0.0411,0.0536,0.0537,0.0537,0.0537,0.0538,0.0538,0.0431,0.0476,0.0569,0.0667,0.0746,0.0827,0.0823,0.0794,0.0694,0.0636,0.0577,0.0444,0.0434,0.0427,0.0544,0.0543,0.0542,0.0542,0.0541,0.0483,0.0512,0.0642,0.0733,0.0925,0.0976,0.0979,0.0891,0.0858,0.0782,0.066,0.0652,0.0606,0.0592,0.0588,0.0758,0.0758,0.0759,0,0.0512,0.0539,0.0719,0.0877,0.1029,0.1071,0.1056,0.0999,0.0854,0.0852,0.0831,0.0698,0.0689,0.0638,0.0627,0.0625,0,0,0,0.055,0.0596,0.0729,0.0904,0.1082,0.108,0.1055,0.1011,0.0896,0.0834,0.0774,0.077,0.0648,0.0564,0.0474,0.0462,0.0445,0,0]}]]